This is the latest recevied weather packets stored in our database for station/object KV9E. If no packets are shown the sender has not sent any weather packets the latest 10 day(s).
| Time | Temp. | Humidity | Pressure | Rain* | Wind** | Luminosity | Snow |
|---|---|---|---|---|---|---|---|
| 1777679509 | 12.22° C | 56% | 1013 hPa | 0 mm | - | 24 W/m² | - |
| 1777679204 | 12.22° C | 57% | 1013.3 hPa | 0 mm | - | 27 W/m² | - |
| 1777678902 | 12.22° C | 59% | 1013.1 hPa | 0 mm | - | 26 W/m² | - |
| 1777678600 | 12.78° C | 58% | 1012.9 hPa | 0 mm | - | 30 W/m² | - |
| 1777678297 | 12.78° C | 61% | 1013.1 hPa | 0 mm | - | 37 W/m² | - |
| 1777677993 | 12.78° C | 61% | 1012.8 hPa | 0 mm | - | 41 W/m² | - |
| 1777677690 | 12.78° C | 64% | 1012.8 hPa | 0 mm | - | 39 W/m² | - |
| 1777677388 | 13.33° C | 64% | 1013 hPa | 0 mm | - | 50 W/m² | - |
| 1777677086 | 13.89° C | 61% | 1012.9 hPa | 0 mm | - | 56 W/m² | - |
| 1777676784 | 13.33° C | 60% | 1012.7 hPa | 0 mm | - | 76 W/m² | - |
| 1777676482 | 13.33° C | 61% | 1012.8 hPa | 0 mm | - | 96 W/m² | - |
| 1777676180 | 13.33° C | 64% | 1012.7 hPa | 0 mm | - | 68 W/m² | - |
| 1777675875 | 13.89° C | 62% | 1012.6 hPa | 0 mm | - | 74 W/m² | - |
| 1777675573 | 13.89° C | 63% | 1012.6 hPa | 0 mm | - | 93 W/m² | - |
| 1777675270 | 13.89° C | 62% | 1012.5 hPa | 0 mm | - | 96 W/m² | - |
| 1777674966 | 13.89° C | 62% | 1012.6 hPa | 0 mm | - | 84 W/m² | - |
| 1777674663 | 13.89° C | 64% | 1012.6 hPa | 0 mm | - | 92 W/m² | - |
| 1777674381 | 13.89° C | 63% | 1012.6 hPa | 0 mm | - | 89 W/m² | - |
| 1777674057 | 14.44° C | 63% | 1012.4 hPa | 0 mm | - | 90 W/m² | - |
| 1777673753 | 14.44° C | 65% | 1012.3 hPa | 0 mm | - | 125 W/m² | - |
| 1777673450 | 14.44° C | 62% | 1012.5 hPa | 0 mm | - | 121 W/m² | - |
| 1777673148 | 15° C | 59% | 1012.5 hPa | 0 mm | - | 104 W/m² | - |
| 1777672845 | 15.56° C | 62% | 1012.3 hPa | 0 mm | - | 152 W/m² | - |
| 1777672540 | 15.56° C | 60% | 1012.6 hPa | 0 mm | - | 201 W/m² | - |
| 1777672236 | 15.56° C | 62% | 1012.8 hPa | 0 mm | - | 220 W/m² | - |
* Rain latest hour (hover to see other rain measurements)
** Current wind speed in m/s (hover to see current wind gust speed)